London,

11:43 PM EDT on July 27, 2017 (GMT -0400)
London

Weather History for CYXU - October, 2011

Change the Weather History Date:

Saturday, October 8, 2011

  Actual Average Record
Temperature  
Mean Temperature 62 °F -  
Max Temperature 77 °F 55 °F 86 °F (2007)
Min Temperature 48 °F 37 °F 28 °F (2001)
Degree Days  
Heating Degree Days 2    
Growing Degree Days 12 (Base 50)    
Moisture  
Dew Point 53 °F    
Average Humidity 78    
Maximum Humidity 100    
Minimum Humidity 53    
Precipitation  
Precipitation 0.00 in 0.11 in - ()
Sea Level Pressure  
Sea Level Pressure 30.42 in    
Wind  
Wind Speed 4 mph ()    
Max Wind Speed 13 mph    
Max Gust Speed -    
Visibility 11.4 miles    
Events Fog    
Averages and records for this station are not official NWS values.
T = Trace of Precipitation, MM = Missing Value Source: Averaged Metar Reports

Daily Weather History Graph

Daily Weather History Graph

Search for Another Location

Airport or City:

Trip Planner

Search our weather history database for the weather conditions in past years. The results will help you decide how hot, cold, wet, or windy it might be!

Date:

Astronomy

Oct. 08, 2011 Rise Set
Actual Time 7:29 AM EDT 6:54 PM EDT
Civil Twilight 7:01 AM EDT 7:22 PM EDT
Nautical Twilight 6:28 AM EDT 7:55 PM EDT
Astronomical Twilight 5:55 AM EDT 8:28 PM EDT
Moon 5:07 PM EDT (10/8) 4:11 AM EDT (10/8)
Length of Visible Light 12h 21m
Length of Day
11h 24m
Waxing Gibbous, 90% of the Moon is Illuminated
Oct 8
Waxing Gibbous
Oct 11
Full
Oct 19
Last Quarter
Oct 26
New
Nov 2
First Quarter

Hourly Weather History & Observations

Time (EDT) Temp. Dew Point Humidity Pressure Visibility Wind Dir Wind Speed Gust Speed Precip Events Conditions
12:00 AM 51.8 °F 48.2 °F 88% 30.42 in 15.0 mi ESE 4.6 mph - N/A   Clear
1:00 AM 51.8 °F 46.4 °F 82% 30.41 in 15.0 mi East 4.6 mph - N/A   Clear
2:00 AM 50.0 °F 46.4 °F 87% 30.40 in 15.0 mi ESE 4.6 mph - N/A   Clear
3:00 AM 51.8 °F 46.4 °F 82% 30.40 in 15.0 mi East 3.5 mph - N/A   Clear
4:00 AM 50.0 °F 46.4 °F 87% 30.40 in 15.0 mi East 2.3 mph - N/A   Clear
5:00 AM 50.0 °F 48.2 °F 94% 30.42 in 12.0 mi ESE 4.6 mph - N/A   Clear
6:00 AM 50.0 °F 48.2 °F 94% 30.43 in 10.0 mi East 3.5 mph - N/A   Clear
7:00 AM 48.2 °F 46.4 °F 93% 30.44 in 10.0 mi East 3.5 mph - N/A Fog Shallow Fog
7:16 AM 48.2 °F - N/A% - 2.5 mi East 3.5 mph - N/A   Partly Cloudy
7:28 AM 48.2 °F - N/A% - 1.0 mi ENE 4.6 mph - N/A   Scattered Clouds
8:00 AM 48.2 °F 48.2 °F 100% 30.46 in 1.0 mi East 4.6 mph - N/A   Scattered Clouds
8:22 AM 50.0 °F - N/A% - 2.5 mi East 4.6 mph - N/A   Partly Cloudy
8:39 AM 51.8 °F - N/A% - 4.0 mi East 3.5 mph - N/A   Partly Cloudy
9:00 AM 55.4 °F 53.6 °F 94% 30.47 in 6.0 mi East 3.5 mph - N/A   Scattered Clouds
10:00 AM 62.6 °F 57.2 °F 82% 30.48 in 10.0 mi SSE 2.3 mph - N/A   Scattered Clouds
11:00 AM 68.0 °F 57.2 °F 68% 30.47 in 10.0 mi SSW 4.6 mph - N/A   Partly Cloudy
12:00 PM 69.8 °F 57.2 °F 64% 30.45 in 12.0 mi SW 3.5 mph - N/A   Partly Cloudy
1:00 PM 73.4 °F 57.2 °F 57% 30.44 in 15.0 mi SW 3.5 mph - N/A   Clear
2:00 PM 75.2 °F 57.2 °F 53% 30.41 in 15.0 mi SSW 8.1 mph - N/A   Clear
3:00 PM 77.0 °F 59.0 °F 54% 30.40 in 15.0 mi South 8.1 mph - N/A   Clear
4:00 PM 75.2 °F 57.2 °F 53% 30.39 in 15.0 mi SSW 6.9 mph - N/A   Clear
5:00 PM 73.4 °F 59.0 °F 61% 30.38 in 15.0 mi South 12.7 mph - N/A   Clear
6:00 PM 69.8 °F 57.2 °F 64% 30.38 in 15.0 mi South 10.4 mph - N/A   Partly Cloudy
7:00 PM 66.2 °F 55.4 °F 68% 30.39 in 15.0 mi South 8.1 mph - N/A   Partly Cloudy
8:00 PM 60.8 °F 55.4 °F 82% 30.41 in 15.0 mi South 4.6 mph - N/A   Clear
9:00 PM 59.0 °F 53.6 °F 82% 30.42 in 15.0 mi SE 5.8 mph - N/A   Clear
10:00 PM 57.2 °F 53.6 °F 88% 30.41 in 15.0 mi Calm Calm - N/A   Clear
11:00 PM 55.4 °F 53.6 °F 94% 30.40 in 12.0 mi Calm Calm - N/A   Clear